Weather History for Findlay, OH

Change the Weather History Date:

Tuesday, May 22, 2012

  Actual Average Record
Temperature  
Mean Temperature 65 °F -  
Max Temperature 75 °F 71 °F 90 °F (1964)
Min Temperature 57 °F 51 °F 36 °F (1961)
Growing Degree Days 15 (Base 50)    
Moisture  
Dew Point 52 °F    
Average Humidity 68    
Maximum Humidity 93    
Minimum Humidity 45    
Precipitation  
Precipitation 0.00 in - - ()
Sea Level Pressure  
Sea Level Pressure 29.94 in    
Wind  
Wind Speed 8 mph (NNE)    
Max Wind Speed 13 mph    
Max Gust Speed 20 mph    
Visibility 10 miles    
Events      
Averages and records for this station are not official NWS values.
T = Trace of Precipitation, MM = Missing Value Source: NWS Daily Summary

Daily Weather History Graph

Daily Weather History Graph

Search for Another Location

Airport:

Trip Planner

Search our weather history database for the weather conditions in past years. The results will help you decide how hot, cold, wet, or windy it might be!

Date:

Astronomy

May. 22, 2012 Rise Set
Actual Time 6:10 AM EDT 8:52 PM EDT
Civil Twilight 5:38 AM EDT 9:24 PM EDT
Nautical Twilight 4:58 AM EDT 10:05 PM EDT
Astronomical Twilight 4:12 AM EDT 10:51 PM EDT
Moon 7:19 AM EDT (5/22) 10:30 PM EDT (5/22)
Length of Visible Light 15h 46m
Length of Day
14h 42m
Waxing Crescent, 3% of the Moon is Illuminated
May 22
Waxing Crescent
May 28
First Quarter
Jun 4
Full
Jun 11
Last Quarter
Jun 19
New

Hourly Weather History & Observations

Time (EDT) Temp. Dew Point Humidity Pressure Visibility Wind Dir Wind Speed Gust Speed Precip Events Conditions
12:53 AM 63.0 °F 55.0 °F 75% 29.96 in 10.0 mi North 9.2 mph - N/A   Overcast
1:53 AM 63.0 °F 55.0 °F 75% 29.95 in 10.0 mi North 10.4 mph - N/A   Overcast
2:28 AM 62.6 °F 57.2 °F 82% 29.98 in 7.0 mi NE 10.4 mph - N/A   Overcast
2:45 AM 60.8 °F 57.2 °F 88% 29.98 in 4.0 mi NE 12.7 mph - N/A   Overcast
2:53 AM 60.1 °F 57.9 °F 93% 29.96 in 3.0 mi NNE 12.7 mph - N/A   Overcast
3:53 AM 57.9 °F 53.1 °F 84% 29.96 in 10.0 mi NE 10.4 mph 19.6 mph N/A   Overcast
4:53 AM 57.9 °F 52.0 °F 81% 29.96 in 10.0 mi NE 10.4 mph - N/A   Overcast
5:46 AM 57.2 °F 51.8 °F 82% 29.97 in 10.0 mi NE 10.4 mph - N/A   Overcast
5:53 AM 57.9 °F 51.1 °F 78% 29.95 in 10.0 mi NE 9.2 mph - N/A   Overcast
6:28 AM 57.2 °F 51.8 °F 82% 29.96 in 10.0 mi NE 8.1 mph - N/A   Overcast
6:53 AM 57.9 °F 51.1 °F 78% 29.95 in 10.0 mi NNE 5.8 mph - N/A   Mostly Cloudy
7:03 AM 57.2 °F 51.8 °F 82% 29.97 in 10.0 mi NNE 9.2 mph - N/A   Mostly Cloudy
7:45 AM 59.0 °F 51.8 °F 77% 29.98 in 10.0 mi North 5.8 mph - N/A   Scattered Clouds
7:53 AM 59.0 °F 52.0 °F 78% 29.96 in 10.0 mi North 8.1 mph - N/A   Mostly Cloudy
8:46 AM 60.8 °F 50.0 °F 68% 29.98 in 10.0 mi North 9.2 mph - N/A   Mostly Cloudy
8:53 AM 60.1 °F 50.0 °F 69% 29.97 in 10.0 mi North 9.2 mph - N/A   Overcast
9:53 AM 62.1 °F 50.0 °F 65% 29.97 in 10.0 mi NNE 9.2 mph - N/A   Clear
10:53 AM 64.9 °F 51.1 °F 61% 29.97 in 10.0 mi North 4.6 mph - N/A   Partly Cloudy
11:53 AM 68.0 °F 51.1 °F 55% 29.96 in 10.0 mi NE 6.9 mph - N/A   Scattered Clouds
12:53 PM 69.1 °F 51.1 °F 53% 29.95 in 10.0 mi Calm Calm - N/A   Mostly Cloudy
1:53 PM 70.0 °F 51.1 °F 51% 29.94 in 10.0 mi Variable 4.6 mph - N/A   Overcast
2:53 PM 71.1 °F 52.0 °F 51% 29.92 in 10.0 mi NNE 3.5 mph - N/A   Overcast
3:53 PM 73.0 °F 51.1 °F 46% 29.91 in 10.0 mi Variable 4.6 mph - N/A   Overcast
4:53 PM 73.9 °F 51.1 °F 45% 29.88 in 10.0 mi Calm Calm - N/A   Mostly Cloudy
5:53 PM 73.9 °F 51.1 °F 45% 29.87 in 10.0 mi NNE 5.8 mph - N/A   Mostly Cloudy
6:53 PM 73.0 °F 51.1 °F 46% 29.87 in 10.0 mi NE 4.6 mph - N/A   Partly Cloudy
7:53 PM 72.0 °F 51.1 °F 48% 29.87 in 10.0 mi North 5.8 mph - N/A   Mostly Cloudy
8:53 PM 69.1 °F 54.0 °F 58% 29.89 in 10.0 mi ENE 9.2 mph - N/A   Mostly Cloudy
9:53 PM 66.0 °F 53.1 °F 63% 29.91 in 10.0 mi NE 8.1 mph - N/A   Scattered Clouds
10:53 PM 63.0 °F 52.0 °F 67% 29.92 in 10.0 mi East 4.6 mph - N/A   Partly Cloudy
11:53 PM 61.0 °F 51.1 °F 70% 29.92 in 10.0 mi East 5.8 mph - N/A   Clear